DELTA 1 DEB, 21682

Orbit data source: Space-Track

DELTA 1 DEB, 21682 is space debris in LEO originally from a launch on Thu, 12 Jun 1975 UTC launched from the Air Force Western Test Range (AFWTR). Debris objects in space refer to the collection of defunct objects orbiting the Earth. Examples of debris include non-operational satellites, rocket bodies, and fragments generated from explosions, collisions, or faulty payload assembly.

Loading next visibility...
Identifier
21682, 1975-052JJ
Orbit
LEO
Country
Flag of USUS
Related business
Manufacturer
Unknown
Mission
Spacecraft
Bus & Motor
Unknown
Mass
Unknown
Launch date (UTC)
1975-06-12 (50 years ago)
Launch vehicle
Unknown
Launch site
Air Force Western Test Range (AFWTR)
Object type
Payload
Rocket body
Debris
Shape & HBR
Unknown shape, 0.1 m
Radar Cross Section
Small (<0.1 m²)

Expand to show TLE details & history
Last TLE update: 1 day ago

TLE from 1 day ago
0 DELTA 1 DEB
1 21682U 75052JJ  25306.04858359  .00001489  00000-0  94334-2 0  9993
2 21682  99.4110 324.6529 0843485 334.3318  76.1821 11.78365149468562
Epoch: 2025-11-02T01:09Z
TLE epoch observation values (Epoch: 2025-11-02T01:09:57.622Z)
Latitude
58.86903°
Longitude
-110.25639°
Altitude
1,680.845 km
Speed
7.086 km/s
True Right ascension
20h 35m 12s
True Declination
58° 44' 03"
Sunlit
Object was in daylight at epoch
Visualization orbit readout
Latitude
Unknown
Longitude
Unknown
Altitude
Unknown
Speed
Unknown
Apparent Right ascension
Unknown
Apparent Declination
Unknown
Sunlit
N/A
Visualization observer readout
Local Sidereal Time
02:44:01
Azimuth
Unknown
Elevation
Unknown
Doppler factor
Unknown
Orbital elements
Apogee altitude
2,464.547 km
Perigee altitude
1,088.851 km
Semi-major axis
8,154.836 km
Eccentricity
0.08435
Inclination
99.411°
RAAN
324.6529°
Arg. of periapsis
334.3318°
True anomaly
85.76519°
Mean anomaly
76.1821°
Eccentric anomaly
80.95482°
Mean motion
2.94727 °/min
Orbital period
122.15 mins
BSTAR
0.0094334
Loading maneuver chart data...
Computing Atmospheric mass density...
Loading historical data...
Loading historical data...
Loading historical data...
Loading historical data...
Loading historical data...
Loading historical data...
Loading historical data...

Documentation

Showing up to 5 results
|